Notices

What's New in latest Release from April 7th, 2021:

- Updated Glossary, including Speed of Maximum Gust, and Total Hourly Precipitation

- Updated national and regional climate services offices contacts and prices information

- Addition of station inventory lists for 1981-2010, 1971-2000, and 1961-1990 Normals.

If you haven't already, please take our survey and provide feedback about our website: https://eccc.sondage-survey.ca/f/LanguageSelection.aspx?s=442ca660-fcf1-47c0-95a9-59707d6fd709

Hourly Data Report for January 10, 2017

TORONTO CITY
ONTARIO

43°40'00.000" N
79°24'00.000" W
112.50 m
6158355
71508
XTO

Download Data

Hourly Data (January 2017)
Hourly Data Report for January 10, 2017
TIME
LST
Temp Definition
°C
Dew Point Definition
°C
Rel Hum Definition
%
Precip. Amount Definition
mm

Wind Dir Definition
10's deg

Wind Spd Definition
km/h
Visibility Definition
km
Stn Press Definition
kPa
Hmdx Definition


Wind Chill Definition


Weather Definition


00:00 -1.5 -8.4 60 0.0 LegendMM LegendMM   101.30     LegendNANA
01:00 -1.2 -8.2 59 0.0 LegendMM LegendMM   101.27     LegendNANA
02:00 -1.0 -7.7 60 0.0 LegendMM LegendMM   101.20     LegendNANA
03:00 -0.5 -7.4 59 0.0 LegendMM LegendMM   101.20     LegendNANA
04:00 -1.0 -5.6 71 0.0 LegendMM LegendMM   101.12     LegendNANA
05:00 -1.1 -4.1 80 0.0 LegendMM LegendMM   101.03     LegendNANA
06:00 -1.4 -2.9 89 0.5 LegendMM LegendMM   100.96     LegendNANA
07:00 -1.2 -2.7 89 0.6 LegendMM LegendMM   100.84     LegendNANA
08:00 -1.1 -2.1 93 0.7 LegendMM LegendMM   100.76     LegendNANA
09:00 -0.7 -1.5 95 1.1 LegendMM LegendMM   100.68     LegendNANA
10:00 -0.5 -2.5 86 0.3 LegendMM LegendMM   100.62     LegendNANA
11:00 0.2 -3.3 77 0.0 LegendMM LegendMM   100.40     LegendNANA
12:00 0.9 -3.5 73 0.0 LegendMM LegendMM   100.20     LegendNANA
13:00 0.3 -1.8 86 0.2 LegendMM LegendMM   100.03     LegendNANA
14:00 0.7 -0.2 93 1.4 LegendMM LegendMM   99.85     LegendNANA
15:00 1.1 0.3 94 1.2 LegendMM LegendMM   99.68     LegendNANA
16:00 1.7 0.8 94 0.5 LegendMM LegendMM   99.49     LegendNANA
17:00 2.4 1.6 95 1.3 LegendMM LegendMM   99.36     LegendNANA
18:00 3.0 2.3 95 3.1 LegendMM LegendMM   99.20     LegendNANA
19:00 3.6 3.0 96 2.1 LegendMM LegendMM   99.04     LegendNANA
20:00 4.2 3.6 96 2.3 LegendMM LegendMM   98.87     LegendNANA
21:00 5.0 4.1 94 0.5 LegendMM LegendMM   98.68     LegendNANA
22:00 6.0 3.9 87 0.5 LegendMM LegendMM   98.56     LegendNANA
23:00 6.1 4.7 90 1.5 LegendMM LegendMM   98.49     LegendNANA

Notes on Data Quality.

Legend

  • E = Estimated
  • M = Missing
  • NA = Not Available*
  • [empty] = Indicates an unobserved value
Date modified: